SCP
0 0 0 0 0 0 0 0 0 0 0 0 0 0 0 0 0 0 0 0 0 0 0 0 0 0 0 0 0 0 0 0 0 0 0 0 0 0 0 0 0 0 0
0 0 0 0 0 0 0 0 0 0 0 0 0 0 0 0 0 0 0 0 0 0 0 0 0 0 0 0 0 0 0 0 0 0 0 0 0 0 0 0 0 0 0
0 0 0 0 0 0 0 0 0 0 0 0 0 0 0 0 0 0 0 0 0 0 0 0 0 0 0 0 0 0 0 0 0 0 0 0 0 0 0 0 0 0 0
0 0 0 0 0 0 0 0 0 0 0 0 0 0 0 0 0 0 0 0 0 0 0 0 0 0 0 0 0 0 0 0 0 0 0 0 0 0 0 0 0 0 0
0 0 0 0 0 0 0 0 0 0 0 0 0 0 0 0 0 0 0 0 0 0 0 0 0 0 0 0 0 0 0 0 0 0 0 0 0 0 0 0 0 0 0
0 0 0 0 0 0 0 0 0 0 0 0 0 0 0 0 0 0 0 0 0 0 0 0 0 0 0 0 0 0 0 0 0 0 0 0 0 0 0 0 0 0 0
0 0 0 0 0 0 0 0 0 0 0 0 0 0 0 0 0 0 0 0 0 0 0 0 0 0 0 0 0 0 0 0 0 0 0 0 0 0 0 0 0 0 0
0 0 0 0 0 0 0 0 0 0 0 0 0 0 0 0 0 0 0 0 0 0 0 0 0 0 0 0 0 0 0 0 0 0 0 0 0 0 0 0 0 0 0
0 0 0 0 0 0 0 0 0 0 0 0 0 0 0 0 0 0 0 0 0 0 0 0 0 0 0 0 0 0 0 0 0 0 0 0 0 0 0 0 0 0 0
0 0 0 0 0 0 0 0 0 0 0 0 0 0 0 0 0 0 0 0 0 0 0 0 -0 -0 0 0 0 0 0 0 0 0 0 0 0 0 0 0 0 0 0
0 0 0 0 0 0 0 0 0 0 0 0 0 0 0 0 0 0 0 0 0 0 0 -0 -0 -0 -0 -0 -0 0 0 0 0 0 0 0 0 0 0 0 0 0 0
0 0 0 0 0 0 0 0 0 0 0 0 0 0 0 0 0 0 0 0 -0 -0 -0 -0 -0 -0 -0 -0 -0 0 0 0 0 0 0 0 0 0 0 0 0 0 0
0 0 0 0 0 0 0 0 0 0 0 0 0 0 0 0 0 0 0 0 -0 -0 -0 -0 -0 -0 -0 -0 -0 -0 -0 0 0 0 0 0 0 0 0 0 0 0 0
0 0 0 0 0 0 0 0 0 0 0 0 0 0 0 0 0 0 0 0 -0 -0 -0 -0 -0 -0 -0 -0 -0 -0 -0 -0 -0 0 0 0 0 0 0 0 0 0 0
0 0 0 0 0 0 0 0 0 0 0 0 0 0 0 0 0 0 0 0 0 0 -0 -0 -0 -0 -0 -0 -0 -0 -0 -0 -0 -0 0 0 0 0 0 0 0 0 0
0 0 0 0 0 0 0 0 0 0 0 0 0 0 0 0 0 0 0 0 0 0 0 0 0 0 -0 -0 -0 -0 -0 -0 -0 -0 -0 0 0 0 0 0 0 0 0
0 0 0 0 0 0 0 0 0 0 0 0 0 0 0 0 0 0 0 0 0 0 0 0 0 0 -0 -0 -0 -0 -0 -0 -0 -0 0 -0 0 0 0 0 0 0 0
0 0 0 0 0 0 0 0 0 0 0 0 0 0 0 0 0 0 0 0 0 0 0 0 0 0 -0 -0 -0 -0 -0 -0 -0 -0 0 0 0 0 0 0 0 0 0
0 0 0 0 0 0 0 0 0 0 0 0 0 0 0 0 0 0 0 0 0 0 0 0 0 0 0 -0 -0 -0 -0 -0 -0 0 0 0 0 0 0 0 0 0 0
0 0 0 0 0 0 0 0 0 0 0 0 0 0 0 0 0 0 0 0 0 0 0 0 0 0 0 0 -0 -0 -0 -0 -0 -0 0 0 0 0 0 0 0 0 0
0 0 0 0 0 0 0 0 0 0 0 0 0 0 0 0 0 0 0 0 0 0 0 0 0 0 0 0 0 0 0 0 0 0 0 0 0 0 0 0 0 0 0
0 0 0 0 0 0 0 0 0 0 0 0 0 0 0 0 0 0 0 0 0 0 0 0 0 0 0 0 0 0 0 0 0 0 -0 0 0 0 0 0 0 0 0
0 0 0 0 0 0 0 0 0 0 0 0 0 0 0 0 0 0 0 0 0 0 0 0 0 0 0 0 0 0 0 0 0 0 0 0 0 0 0 0 0 0 0
0 0 0 0 0 0 0 0 0 0 0 0 0 0 0 0 0 0 0 0 0 0 0 0 0 0 0 0 0 0 0 0 0 0 0 0 0 0 0 0 0 0 0
0 0 0 0 0 0 0 0 0 0 0 0 0 0 0 0 0 0 0 0 0 0 0 0 0 0 0 0 0 0 0 0 0 0 0 0 0 0 0 0 0 -0 -0
0 0 0 0 0 0 0 0 0 0 0 0 0 0 0 0 0 0 0 0 0 0 0 0 0 0 0 0 0 0 0 0 0 0 0 0 0 0 -0 0 0 0 0
Wind_Speed_500mb
11 8 8 13 16 16 18 20 18 20 23 24 28 22 25 29 30 27 24 21 22 22 22 23 23 24 25 24 14 13 21 25 24 31 32 25 25 27 26 26 28 29 36
15 13 16 22 21 21 19 18 23 19 17 21 20 19 21 25 24 23 21 21 20 22 23 25 25 25 24 23 23 21 13 13 23 27 27 37 33 33 33 34 33 33 34
15 11 14 16 21 21 18 20 21 20 23 23 23 19 26 24 22 21 24 25 27 27 27 27 28 28 27 25 24 25 27 26 23 19 22 34 41 43 43 38 32 33 40
10 6 7 13 13 13 11 9 9 15 17 18 17 20 19 18 19 20 25 26 26 28 29 28 27 27 28 28 29 28 27 30 30 21 18 28 41 41 43 40 33 34 35
11 11 7 2 3 2 2 6 8 12 13 14 16 15 16 16 17 20 21 18 16 16 18 22 23 22 22 23 25 28 30 31 32 34 40 33 24 40 42 43 42 39 41
12 9 5 5 2 6 5 5 7 7 11 15 14 12 10 18 9 11 16 13 16 20 26 30 34 31 31 30 28 26 27 30 36 37 38 40 33 34 39 45 43 44 44
12 11 8 9 9 7 8 9 11 12 13 19 15 11 5 11 13 18 13 17 22 24 32 34 33 40 36 35 33 33 36 34 33 37 40 40 41 41 30 34 39 45 45
19 16 14 14 15 16 16 16 17 21 23 25 23 11 3 3 18 16 18 23 28 33 41 44 35 45 38 40 38 37 37 37 39 39 40 41 42 46 53 46 38 26 38
23 19 16 14 13 13 16 18 19 21 25 24 25 16 5 4 24 11 25 36 42 47 51 49 53 48 49 48 43 43 42 37 38 37 39 44 45 46 48 55 61 60 51
19 15 12 11 11 14 14 16 19 21 20 20 19 21 17 15 11 22 25 42 50 53 56 60 57 60 54 55 52 56 42 43 52 49 49 49 48 50 51 53 55 60 65
16 11 7 9 11 12 16 18 19 22 25 25 23 19 16 14 16 31 46 59 59 58 60 57 63 63 67 62 53 52 58 56 58 66 68 62 57 55 53 53 57 59 61
11 8 7 7 11 15 17 21 24 26 26 26 25 25 25 24 24 31 43 55 61 66 61 65 53 61 58 59 59 67 72 76 75 74 72 68 65 61 60 58 56 56 61
9 6 4 7 11 15 19 21 23 26 29 30 30 30 28 26 28 31 38 49 63 74 66 55 68 68 65 71 75 76 79 78 77 74 73 71 69 67 65 63 63 61 58
9 5 2 4 9 13 16 19 23 27 29 32 33 33 35 36 36 37 42 48 66 72 77 75 74 76 80 85 87 87 88 87 86 85 82 77 71 69 69 69 68 67 66
12 7 3 3 7 12 16 21 24 28 31 33 35 36 37 37 37 38 40 42 44 49 77 79 80 81 84 90 91 92 91 91 91 88 86 84 79 73 69 70 72 71 71
15 10 7 4 7 11 16 20 24 27 30 32 33 34 35 35 36 38 42 43 42 45 56 81 84 84 86 89 92 93 94 92 89 89 83 82 80 76 72 70 71 73 74
18 14 11 8 8 11 14 18 23 26 30 34 37 37 38 39 39 41 44 46 47 50 61 85 83 88 91 93 94 95 95 94 91 85 80 61 52 59 61 62 62 61 65
23 19 15 12 12 12 16 20 24 29 33 37 40 42 43 44 45 46 48 49 53 56 62 80 87 92 95 97 99 96 93 91 88 84 74 74 67 64 69 68 71 68 71
28 25 22 19 17 16 17 21 25 29 34 38 42 44 46 48 49 50 52 55 58 61 65 75 93 90 94 95 98 95 90 85 81 79 75 70 67 58 50 49 54 55 61
35 31 29 26 23 21 23 25 29 32 34 39 43 47 49 52 53 55 57 58 60 65 69 76 85 91 92 91 84 82 93 88 89 80 76 74 69 63 65 68 58 53 62
40 37 35 32 30 30 31 32 34 37 40 44 48 50 52 54 54 57 60 60 63 66 70 75 83 87 91 87 82 82 85 90 92 86 89 81 83 81 73 69 64 55 39
46 42 42 41 38 38 38 38 39 41 45 50 54 54 54 55 57 60 60 60 58 58 66 69 75 77 84 82 81 82 88 93 103 85 77 95 85 88 83 74 68 54 57
49 48 48 47 46 45 44 43 43 46 50 54 56 57 57 57 60 62 61 60 56 58 52 59 71 74 82 84 85 90 88 92 91 85 78 85 90 95 85 82 69 62 61
52 52 52 52 52 50 47 47 47 51 54 56 57 57 58 58 58 60 62 61 67 69 68 65 65 71 73 80 86 89 90 97 105 88 72 93 87 87 77 78 76 61 53
56 56 56 56 56 52 51 51 52 54 57 59 61 58 57 59 56 57 48 59 67 70 73 75 72 66 66 71 70 71 75 78 84 72 68 73 74 77 82 85 60 18 30
56 58 61 61 58 56 53 54 55 57 61 61 61 59 57 56 50 39 45 55 67 76 74 75 77 75 71 67 62 56 56 65 70 68 42 64 81 71 68 62 27 54 77
Wind_Direction_500mb
223 231 270 290 286 272 282 295 317 324 328 328 322 335 337 336 339 336 335 334 328 323 318 312 310 309 308 306 314 330 328 328 328 317 319 316 338 334 322 304 285 274 266
255 285 300 298 283 290 261 304 308 311 305 310 315 311 321 322 332 332 323 323 325 327 322 311 302 296 296 298 294 285 278 290 292 303 307 311 323 328 329 322 313 297 283
232 242 261 275 284 285 281 300 304 296 312 317 312 304 315 312 310 315 312 319 324 322 317 316 310 300 291 284 279 279 275 273 277 295 290 304 311 316 323 330 332 324 313
162 216 265 258 265 283 273 309 318 309 307 305 310 316 325 321 319 306 304 306 312 318 319 316 311 306 302 293 285 279 275 272 272 269 272 286 299 298 313 318 320 327 326
161 167 181 196 188 151 358 287 288 287 300 313 321 323 329 312 306 302 305 322 330 329 339 339 337 326 317 310 302 291 282 278 275 266 262 265 284 282 297 305 311 314 318
154 154 203 216 215 291 285 273 276 315 330 337 350 15 336 344 336 345 330 325 331 345 347 344 340 336 327 317 310 308 304 287 276 271 268 266 265 277 276 295 303 301 305
159 161 165 146 113 97 69 43 23 15 10 12 28 88 43 359 13 0 334 336 346 351 354 353 354 354 351 347 334 310 297 300 296 291 284 274 258 259 258 268 282 294 301
139 135 122 104 86 64 60 48 29 16 10 7 21 70 89 309 23 351 336 329 335 337 339 344 345 348 347 348 343 344 338 317 303 299 297 292 280 265 262 260 262 264 278
126 116 97 79 66 48 33 27 21 12 15 13 12 25 27 346 335 265 312 320 327 330 332 338 340 343 341 342 336 334 333 332 334 325 312 304 296 288 279 269 264 262 261
123 104 80 61 41 25 17 12 9 5 5 17 19 26 21 349 333 309 309 318 323 333 336 339 340 338 340 335 333 325 326 321 318 312 317 318 312 300 289 283 279 273 268
126 107 77 42 29 24 18 16 14 11 10 8 14 14 9 357 330 323 322 326 325 333 337 336 342 343 341 336 332 322 320 319 315 311 310 310 306 303 301 295 284 279 277
139 122 86 36 23 18 15 12 9 6 7 6 8 3 359 355 343 333 324 328 329 333 339 344 341 342 336 335 327 322 318 317 314 312 309 307 303 299 295 294 293 290 279
160 127 74 28 16 9 5 1 359 357 356 353 354 355 349 346 339 335 331 330 330 331 335 335 337 342 338 328 322 318 317 315 313 311 309 306 303 299 295 291 288 287 286
187 181 164 19 7 4 353 352 350 347 346 340 338 337 335 334 333 336 335 333 331 327 326 330 334 335 330 328 327 324 321 319 318 315 312 309 305 300 296 292 287 284 281
211 215 235 349 348 349 343 338 338 337 336 333 330 327 324 324 324 327 326 328 329 321 320 325 326 328 328 326 324 322 320 318 316 314 312 310 307 302 295 291 288 284 281
222 228 243 281 315 324 334 337 338 338 332 327 325 320 315 313 317 319 320 321 319 313 306 318 321 323 323 322 321 319 316 314 313 313 312 310 309 308 302 293 286 284 280
225 233 243 260 293 314 325 329 332 334 332 331 325 321 314 313 315 317 316 316 315 313 307 314 318 319 320 319 319 319 317 315 313 311 312 317 302 294 293 297 296 294 289
230 234 239 253 274 293 309 323 331 333 334 331 325 318 312 312 313 314 313 313 313 312 309 311 317 319 319 320 320 319 317 315 315 313 311 310 309 305 303 298 290 286 284
234 235 242 252 264 282 296 311 319 324 328 327 322 316 313 310 310 310 310 311 312 311 311 311 313 315 316 319 320 321 322 319 317 316 314 313 315 313 304 302 296 291 287
235 238 244 251 262 275 287 300 307 314 318 320 318 314 310 307 307 307 308 309 308 310 312 311 310 313 316 321 323 325 321 322 320 320 318 319 317 315 312 306 302 291 282
237 241 248 255 264 274 284 292 300 305 311 315 315 311 307 305 303 303 304 306 308 309 310 311 311 315 317 322 323 323 318 321 319 320 319 321 321 318 315 315 314 310 297
240 247 253 257 266 274 281 288 292 297 305 309 309 307 304 303 302 300 301 302 305 307 309 307 311 308 309 315 319 316 313 311 308 317 315 314 319 315 314 314 315 307 300
246 252 255 263 270 275 281 286 289 292 298 303 306 308 307 304 301 300 299 301 304 307 303 301 298 306 310 315 318 314 312 310 302 306 311 306 307 308 311 311 307 302 298
251 257 262 267 272 276 280 282 284 288 295 302 305 306 304 302 299 299 300 307 314 315 312 310 306 303 302 305 303 299 298 292 290 294 298 299 307 306 313 311 312 313 298
255 262 268 271 273 276 277 280 281 285 293 300 302 302 301 299 300 300 308 303 304 303 305 303 299 299 300 301 299 297 291 297 296 299 302 301 307 306 307 309 318 302 328
261 265 269 271 273 275 275 276 279 285 292 297 299 300 298 300 300 293 294 297 296 303 307 307 311 310 311 311 308 303 299 296 301 304 300 290 299 306 308 305 293 294 305
Wind_Speed_850mb
11 8 8 13 16 16 18 20 18 20 23 24 28 22 25 29 30 27 24 21 22 22 22 23 23 24 25 24 14 13 21 25 24 31 32 25 25 27 26 26 28 29 36
15 13 16 22 21 21 19 18 23 19 17 21 20 19 21 25 24 23 21 21 20 22 23 25 25 25 24 23 23 21 13 13 23 27 27 37 33 33 33 34 33 33 34
15 11 14 16 21 21 18 20 21 20 23 23 23 19 26 24 22 21 24 25 27 27 27 27 28 28 27 25 24 25 27 26 23 19 22 34 41 43 43 38 32 33 40
10 6 7 13 13 13 11 9 9 15 17 18 17 20 19 18 19 20 25 26 26 28 29 28 27 27 28 28 29 28 27 30 30 21 18 28 41 41 43 40 33 34 35
11 11 7 2 3 2 2 6 8 12 13 14 16 15 16 16 17 20 21 18 16 16 18 22 23 22 22 23 25 28 30 31 32 34 40 33 24 40 42 43 42 39 41
12 9 5 5 2 6 5 5 7 7 11 15 14 12 10 18 9 11 16 13 16 20 26 30 34 31 31 30 28 26 27 30 36 37 38 40 33 34 39 45 43 44 44
12 11 8 9 9 7 8 9 11 12 13 19 15 11 5 11 13 18 13 17 22 24 32 34 33 40 36 35 33 33 36 34 33 37 40 40 41 41 30 34 39 45 45
19 16 14 14 15 16 16 16 17 21 23 25 23 11 3 3 18 16 18 23 28 33 41 44 35 45 38 40 38 37 37 37 39 39 40 41 42 46 53 46 38 26 38
23 19 16 14 13 13 16 18 19 21 25 24 25 16 5 4 24 11 25 36 42 47 51 49 53 48 49 48 43 43 42 37 38 37 39 44 45 46 48 55 61 60 51
19 15 12 11 11 14 14 16 19 21 20 20 19 21 17 15 11 22 25 42 50 53 56 60 57 60 54 55 52 56 42 43 52 49 49 49 48 50 51 53 55 60 65
16 11 7 9 11 12 16 18 19 22 25 25 23 19 16 14 16 31 46 59 59 58 60 57 63 63 67 62 53 52 58 56 58 66 68 62 57 55 53 53 57 59 61
11 8 7 7 11 15 17 21 24 26 26 26 25 25 25 24 24 31 43 55 61 66 61 65 53 61 58 59 59 67 72 76 75 74 72 68 65 61 60 58 56 56 61
9 6 4 7 11 15 19 21 23 26 29 30 30 30 28 26 28 31 38 49 63 74 66 55 68 68 65 71 75 76 79 78 77 74 73 71 69 67 65 63 63 61 58
9 5 2 4 9 13 16 19 23 27 29 32 33 33 35 36 36 37 42 48 66 72 77 75 74 76 80 85 87 87 88 87 86 85 82 77 71 69 69 69 68 67 66
12 7 3 3 7 12 16 21 24 28 31 33 35 36 37 37 37 38 40 42 44 49 77 79 80 81 84 90 91 92 91 91 91 88 86 84 79 73 69 70 72 71 71
15 10 7 4 7 11 16 20 24 27 30 32 33 34 35 35 36 38 42 43 42 45 56 81 84 84 86 89 92 93 94 92 89 89 83 82 80 76 72 70 71 73 74
18 14 11 8 8 11 14 18 23 26 30 34 37 37 38 39 39 41 44 46 47 50 61 85 83 88 91 93 94 95 95 94 91 85 80 61 52 59 61 62 62 61 65
23 19 15 12 12 12 16 20 24 29 33 37 40 42 43 44 45 46 48 49 53 56 62 80 87 92 95 97 99 96 93 91 88 84 74 74 67 64 69 68 71 68 71
28 25 22 19 17 16 17 21 25 29 34 38 42 44 46 48 49 50 52 55 58 61 65 75 93 90 94 95 98 95 90 85 81 79 75 70 67 58 50 49 54 55 61
35 31 29 26 23 21 23 25 29 32 34 39 43 47 49 52 53 55 57 58 60 65 69 76 85 91 92 91 84 82 93 88 89 80 76 74 69 63 65 68 58 53 62
40 37 35 32 30 30 31 32 34 37 40 44 48 50 52 54 54 57 60 60 63 66 70 75 83 87 91 87 82 82 85 90 92 86 89 81 83 81 73 69 64 55 39
46 42 42 41 38 38 38 38 39 41 45 50 54 54 54 55 57 60 60 60 58 58 66 69 75 77 84 82 81 82 88 93 103 85 77 95 85 88 83 74 68 54 57
49 48 48 47 46 45 44 43 43 46 50 54 56 57 57 57 60 62 61 60 56 58 52 59 71 74 82 84 85 90 88 92 91 85 78 85 90 95 85 82 69 62 61
52 52 52 52 52 50 47 47 47 51 54 56 57 57 58 58 58 60 62 61 67 69 68 65 65 71 73 80 86 89 90 97 105 88 72 93 87 87 77 78 76 61 53
56 56 56 56 56 52 51 51 52 54 57 59 61 58 57 59 56 57 48 59 67 70 73 75 72 66 66 71 70 71 75 78 84 72 68 73 74 77 82 85 60 18 30
56 58 61 61 58 56 53 54 55 57 61 61 61 59 57 56 50 39 45 55 67 76 74 75 77 75 71 67 62 56 56 65 70 68 42 64 81 71 68 62 27 54 77
Wind_Direction_850mb
223 231 270 290 286 272 282 295 317 324 328 328 322 335 337 336 339 336 335 334 328 323 318 312 310 309 308 306 314 330 328 328 328 317 319 316 338 334 322 304 285 274 266
255 285 300 298 283 290 261 304 308 311 305 310 315 311 321 322 332 332 323 323 325 327 322 311 302 296 296 298 294 285 278 290 292 303 307 311 323 328 329 322 313 297 283
232 242 261 275 284 285 281 300 304 296 312 317 312 304 315 312 310 315 312 319 324 322 317 316 310 300 291 284 279 279 275 273 277 295 290 304 311 316 323 330 332 324 313
162 216 265 258 265 283 273 309 318 309 307 305 310 316 325 321 319 306 304 306 312 318 319 316 311 306 302 293 285 279 275 272 272 269 272 286 299 298 313 318 320 327 326
161 167 181 196 188 151 358 287 288 287 300 313 321 323 329 312 306 302 305 322 330 329 339 339 337 326 317 310 302 291 282 278 275 266 262 265 284 282 297 305 311 314 318
154 154 203 216 215 291 285 273 276 315 330 337 350 15 336 344 336 345 330 325 331 345 347 344 340 336 327 317 310 308 304 287 276 271 268 266 265 277 276 295 303 301 305
159 161 165 146 113 97 69 43 23 15 10 12 28 88 43 359 13 0 334 336 346 351 354 353 354 354 351 347 334 310 297 300 296 291 284 274 258 259 258 268 282 294 301
139 135 122 104 86 64 60 48 29 16 10 7 21 70 89 309 23 351 336 329 335 337 339 344 345 348 347 348 343 344 338 317 303 299 297 292 280 265 262 260 262 264 278
126 116 97 79 66 48 33 27 21 12 15 13 12 25 27 346 335 265 312 320 327 330 332 338 340 343 341 342 336 334 333 332 334 325 312 304 296 288 279 269 264 262 261
123 104 80 61 41 25 17 12 9 5 5 17 19 26 21 349 333 309 309 318 323 333 336 339 340 338 340 335 333 325 326 321 318 312 317 318 312 300 289 283 279 273 268
126 107 77 42 29 24 18 16 14 11 10 8 14 14 9 357 330 323 322 326 325 333 337 336 342 343 341 336 332 322 320 319 315 311 310 310 306 303 301 295 284 279 277
139 122 86 36 23 18 15 12 9 6 7 6 8 3 359 355 343 333 324 328 329 333 339 344 341 342 336 335 327 322 318 317 314 312 309 307 303 299 295 294 293 290 279
160 127 74 28 16 9 5 1 359 357 356 353 354 355 349 346 339 335 331 330 330 331 335 335 337 342 338 328 322 318 317 315 313 311 309 306 303 299 295 291 288 287 286
187 181 164 19 7 4 353 352 350 347 346 340 338 337 335 334 333 336 335 333 331 327 326 330 334 335 330 328 327 324 321 319 318 315 312 309 305 300 296 292 287 284 281
211 215 235 349 348 349 343 338 338 337 336 333 330 327 324 324 324 327 326 328 329 321 320 325 326 328 328 326 324 322 320 318 316 314 312 310 307 302 295 291 288 284 281
222 228 243 281 315 324 334 337 338 338 332 327 325 320 315 313 317 319 320 321 319 313 306 318 321 323 323 322 321 319 316 314 313 313 312 310 309 308 302 293 286 284 280
225 233 243 260 293 314 325 329 332 334 332 331 325 321 314 313 315 317 316 316 315 313 307 314 318 319 320 319 319 319 317 315 313 311 312 317 302 294 293 297 296 294 289
230 234 239 253 274 293 309 323 331 333 334 331 325 318 312 312 313 314 313 313 313 312 309 311 317 319 319 320 320 319 317 315 315 313 311 310 309 305 303 298 290 286 284
234 235 242 252 264 282 296 311 319 324 328 327 322 316 313 310 310 310 310 311 312 311 311 311 313 315 316 319 320 321 322 319 317 316 314 313 315 313 304 302 296 291 287
235 238 244 251 262 275 287 300 307 314 318 320 318 314 310 307 307 307 308 309 308 310 312 311 310 313 316 321 323 325 321 322 320 320 318 319 317 315 312 306 302 291 282
237 241 248 255 264 274 284 292 300 305 311 315 315 311 307 305 303 303 304 306 308 309 310 311 311 315 317 322 323 323 318 321 319 320 319 321 321 318 315 315 314 310 297
240 247 253 257 266 274 281 288 292 297 305 309 309 307 304 303 302 300 301 302 305 307 309 307 311 308 309 315 319 316 313 311 308 317 315 314 319 315 314 314 315 307 300
246 252 255 263 270 275 281 286 289 292 298 303 306 308 307 304 301 300 299 301 304 307 303 301 298 306 310 315 318 314 312 310 302 306 311 306 307 308 311 311 307 302 298
251 257 262 267 272 276 280 282 284 288 295 302 305 306 304 302 299 299 300 307 314 315 312 310 306 303 302 305 303 299 298 292 290 294 298 299 307 306 313 311 312 313 298
255 262 268 271 273 276 277 280 281 285 293 300 302 302 301 299 300 300 308 303 304 303 305 303 299 299 300 301 299 297 291 297 296 299 302 301 307 306 307 309 318 302 328
261 265 269 271 273 275 275 276 279 285 292 297 299 300 298 300 300 293 294 297 296 303 307 307 311 310 311 311 308 303 299 296 301 304 300 290 299 306 308 305 293 294 305